CZ-3C DEB, 40832

Orbit data source: Space-Track

CZ-3C DEB, 40832 is space debris originally from a launch on Sun, 31 Oct 2010 UTC launched from the Xichang Space Center, China (XSC). Debris objects in space refer to the collection of defunct objects orbiting the Earth. Examples of debris include non-operational satellites, rocket bodies, and fragments generated from explosions, collisions, or faulty payload assembly.

Loading next visibility...
CZ-3C DEB details
Identifier
40832, 2010-057AZ
Orbit
Molniya
Last TLE update1 month ago
Origin
Flag of CNCASC (CN / PRC)
ManufacturerCALT
MissionSpacecraft
Bus & MotorUnknown
MassUnknown
Launch date (UTC)
2010-10-31 (14 years ago)
Launch vehicleUnknown
Launch site
Xichang Space Center, China (XSC)
Object type
Payload
Rocket body
Debris
Shape & HBRUnknown
Radar Cross SectionMedium (>0.1 m² and <1 m²)

Expand to show TLE details & history

TLE from 1 month ago
0 CZ-3C DEB
1 40832U 10057AZ  24307.18927890  .00000428  00000-0  37392-2 0  9990
2 40832  19.9495 238.7356 7172897 268.6665  16.1871  2.26618630 79802
Epoch: 2024-11-02T04:32Z
Definitive object data (Epoch: 2024-11-02T04:32:33.696Z)
Latitude0.00007°
Longitude128.58711°
Altitude5,724.723 km
Speed7.042 km/s
True Right ascension15h 54m 41s
True Declination0° 00' 00"
Sunlit
Object was in daylight at TLE epoch
Visualization TLE readout
Latitude2.72646°
Longitude121.46583°
Altitude3,509.842 km
Speed8.021 km/s
Apparent Right ascension13h 27m 58s
Apparent Declination-21° 36' 10"
Sunlit
Object is in daylight
Visualization observer readout
Local Sidereal Time19:51:42
Azimuth256.577° W
Elevation-18.056°
Doppler factor1
Orbital elements
Apogee altitude35,674.489 km
Perigee altitude544.813 km
Semi-major axis24,487.788 km
Eccentricity0.7172897
Inclination19.9495°
RAAN238.7356°
Arg. of periapsis268.6665°
True anomaly91.8879°
Mean anomaly16.1871°
Eccentric anomaly45.50007°
Mean motion0.56639 °/min
BSTAR0.0037392
Orbital period635.6 mins
Loading maneuver chart data...
Loading historical data...
Loading historical data...
Loading historical data...
Loading historical data...
Loading historical data...
Loading historical data...
Loading historical data...

CZ-3C DEB Visibility forecast

Observer location: undefined°, undefined

Span
Click to sort rows by Start time (UTC) header in descending order
Start Az.
Max El. time (UTC)
Max El. Az.
Max El.
End time (UTC)
End Az.
571 mins2024-12-11 21:40:51.147Z247.787° W2024-12-11 23:45:51.147Z223.378° SW40.643°2024-12-12 07:11:51.147Z210.006° SW
167 mins2024-12-12 18:40:51.147Z212.706° SW2024-12-12 21:27:51.147Z130.529° SE40.018°2024-12-12 21:27:51.147Z130.529° SE
|